Weather History for Volkel, Netherlands

Change the Weather History Date:

Wednesday, February 12, 2014

  Actual Average Record
Temperature  
Mean Temperature 42 °F -  
Max Temperature 48 °F 45 °F 59 °F (1998)
Min Temperature 35 °F 34 °F 12 °F (2012)
Degree Days  
Heating Degree Days 24    
Moisture  
Dew Point 36 °F    
Average Humidity 79    
Maximum Humidity 93    
Minimum Humidity 44    
Precipitation  
Precipitation 0.08 in - - ()
Sea Level Pressure  
Sea Level Pressure 29.58 in    
Wind  
Wind Speed 14 mph ()    
Max Wind Speed 37 mph    
Max Gust Speed 60 mph    
Visibility 7.4 miles    
Events Rain    
Averages and records for this station are not official NWS values.
T = Trace of Precipitation, MM = Missing Value Source: Averaged Metar Reports

Daily Weather History Graph

Daily Weather History Graph

Search for Another Location

Airport:

Trip Planner

Search our weather history database for the weather conditions in past years. The results will help you decide how hot, cold, wet, or windy it might be!

Date:

Astronomy

Feb. 12, 2014 Rise Set
Actual Time 7:57 AM CET 5:46 PM CET
Civil Twilight 7:22 AM CET 6:21 PM CET
Nautical Twilight 6:43 AM CET 7:00 PM CET
Astronomical Twilight 6:04 AM CET 7:39 PM CET
Moon 3:39 PM CET (2/12) 6:11 AM CET (2/12)
Length of Visible Light 10h 58m
Length of Day
9h 48m
Waxing Gibbous, 94% of the Moon is Illuminated
Feb 12
Waxing Gibbous
Feb 15
Full
Feb 22
Last Quarter
Mar 1
New
Mar 8
First Quarter

Hourly Weather History & Observations

Time (CET) Temp. Windchill Dew Point Humidity Pressure Visibility Wind Dir Wind Speed Gust Speed Precip Events Conditions
12:00 AM 41 °F - 39 °F 90% 29.60 in 11 mi SW 11.2 mph - - Rain Drizzle
12:25 AM 41.0 °F 34.7 °F 39.2 °F 93% 29.59 in 6.2 mi SW 10.4 mph - N/A   Overcast
12:33 AM 41.0 °F 34.3 °F 39.2 °F 93% 29.59 in 6.2 mi SW 11.5 mph - N/A   Overcast
12:37 AM 41.0 °F 33.9 °F 39.2 °F 93% 29.59 in 6.2 mi SW 12.7 mph - N/A   Overcast
12:42 AM 41.0 °F 33.9 °F 39.2 °F 93% 29.59 in 6.2 mi SW 12.7 mph - N/A   Overcast
12:46 AM 41.0 °F 34.3 °F 39.2 °F 93% 29.59 in 6.2 mi SW 11.5 mph - N/A   Mostly Cloudy
12:50 AM 41.0 °F 34.3 °F 39.2 °F 93% 29.59 in 6.2 mi SW 11.5 mph - N/A   Mostly Cloudy
12:55 AM 41.0 °F 34.3 °F 39.2 °F 93% 29.59 in 6.2 mi SW 11.5 mph - N/A   Mostly Cloudy
1:00 AM 41 °F - 39 °F 89% 29.61 in 11 mi SW 11.2 mph - -   Partly Cloudy
1:25 AM 39.2 °F 32.5 °F 37.4 °F 93% 29.59 in 6.2 mi SW 10.4 mph - N/A   Partly Cloudy
1:51 AM 39.2 °F 33.0 °F 37.4 °F 93% 29.62 in 6.2 mi SSW 9.2 mph - N/A   Scattered Clouds
1:55 AM 39.2 °F 33.6 °F 37.4 °F 93% 29.62 in 6.2 mi SSW 8.1 mph - N/A   Mostly Cloudy
1:59 AM 39.2 °F 33.0 °F 37.4 °F 93% 29.62 in 6.2 mi SSW 9.2 mph - N/A   Overcast
2:00 AM 40 °F - 38 °F 88% 29.63 in 10 mi SSW 8.9 mph - -   Scattered Clouds
2:06 AM 41.0 °F 34.7 °F 37.4 °F 87% 29.62 in 6.2 mi SSW 10.4 mph - N/A   Scattered Clouds
2:10 AM 39.2 °F 32.0 °F 37.4 °F 93% 29.62 in 6.2 mi SSW 11.5 mph - N/A   Partly Cloudy
2:25 AM 39.2 °F 32.5 °F 37.4 °F 93% 29.62 in 6.2 mi SSW 10.4 mph - N/A   Mostly Cloudy
2:55 AM 41.0 °F 34.7 °F 37.4 °F 87% 29.62 in 6.2 mi SSW 10.4 mph - N/A   Overcast
3:00 AM 40 °F - 37 °F 86% 29.65 in 14 mi SSW 11.2 mph - -   Overcast
3:03 AM 39.2 °F 32.5 °F 37.4 °F 93% 29.62 in 6.2 mi SSW 10.4 mph - N/A   Overcast
3:07 AM 41.0 °F 34.3 °F 37.4 °F 87% 29.62 in 6.2 mi SSW 11.5 mph - N/A   Mostly Cloudy
3:18 AM 41.0 °F 33.9 °F 37.4 °F 87% 29.62 in 6.2 mi SSW 12.7 mph - N/A   Mostly Cloudy
3:25 AM 39.2 °F 31.2 °F 37.4 °F 93% 29.62 in 6.2 mi SSW 13.8 mph - N/A   Overcast
3:28 AM 39.2 °F 31.2 °F 37.4 °F 93% 29.62 in 6.2 mi SW 13.8 mph - N/A   Mostly Cloudy
3:33 AM 39.2 °F 31.6 °F 37.4 °F 93% 29.62 in 6.2 mi SW 12.7 mph - N/A   Mostly Cloudy
3:55 AM 39.2 °F 31.6 °F 35.6 °F 87% 29.62 in 6.2 mi SSW 12.7 mph - N/A   Partly Cloudy
4:00 AM 39 °F - 36 °F 84% 29.65 in 18 mi SSW 13.4 mph - -   Scattered Clouds
4:25 AM 39.2 °F 31.6 °F 35.6 °F 87% 29.65 in 6.2 mi SSW 12.7 mph - N/A   Unknown
4:55 AM 39.2 °F 31.2 °F 35.6 °F 87% 29.65 in 6.2 mi SW 13.8 mph - N/A   Mostly Cloudy
5:00 AM 38 °F - 35 °F 85% 29.67 in 19 mi SW 13.4 mph - -   Scattered Clouds
5:25 AM 37.4 °F 28.9 °F 35.6 °F 93% 29.65 in 6.2 mi SW 13.8 mph - N/A   Unknown
5:55 AM 37.4 °F 28.9 °F 35.6 °F 93% 29.68 in 6.2 mi SW 13.8 mph - N/A   Unknown
6:00 AM 37 °F - 35 °F 88% 29.69 in 22 mi SW 15.7 mph - -  
6:25 AM 37.4 °F 28.9 °F 33.8 °F 87% 29.68 in 6.2 mi SW 13.8 mph - N/A   Mostly Cloudy
6:55 AM 37.4 °F 29.3 °F 33.8 °F 87% 29.68 in 6.2 mi SW 12.7 mph - N/A   Unknown
7:00 AM 37 °F - 34 °F 84% 29.70 in 19 mi SW 11.2 mph - -   Partly Cloudy
7:25 AM 37.4 °F 29.3 °F 33.8 °F 87% 29.68 in 6.2 mi SSW 12.7 mph - N/A   Mostly Cloudy
7:55 AM 35.6 °F 28.0 °F 33.8 °F 93% 29.71 in 6.2 mi SSW 10.4 mph - N/A   Unknown
8:00 AM 36 °F - 34 °F 89% 29.73 in 16 mi SSW 11.2 mph - -  
8:25 AM 35.6 °F 28.0 °F 33.8 °F 93% 29.71 in 6.2 mi SSW 10.4 mph - N/A   Partly Cloudy
8:55 AM 37.4 °F 29.8 °F 35.6 °F 93% 29.71 in 6.2 mi South 11.5 mph - N/A   Scattered Clouds
9:00 AM 38 °F - 35 °F 86% 29.73 in 13 mi South 11.2 mph - -   Scattered Clouds
9:08 AM 37.4 °F 29.3 °F 35.6 °F 93% 29.71 in 6.2 mi South 12.7 mph - N/A   Mostly Cloudy
9:14 AM 37.4 °F 28.9 °F 35.6 °F 93% 29.71 in 6.2 mi SSW 13.8 mph - N/A   Partly Cloudy
9:15 AM 39.2 °F 30.8 °F 35.6 °F 87% 29.71 in 6.2 mi SSW 15.0 mph - N/A   Scattered Clouds
9:25 AM 39.2 °F 30.8 °F 35.6 °F 87% 29.71 in 6.2 mi SSW 15.0 mph - N/A   Mostly Cloudy
9:34 AM 39.2 °F 31.2 °F 35.6 °F 87% 29.71 in 6.2 mi SSW 13.8 mph - N/A   Partly Cloudy
9:38 AM 39.2 °F 30.8 °F 35.6 °F 87% 29.71 in 6.2 mi SSW 15.0 mph - N/A   Scattered Clouds
9:45 AM 39.2 °F 30.5 °F 35.6 °F 87% 29.74 in 6.2 mi SSW 16.1 mph - N/A   Partly Cloudy
9:51 AM 39.2 °F 30.5 °F 35.6 °F 87% 29.71 in 6.2 mi SSW 16.1 mph - N/A   Scattered Clouds
9:55 AM 39.2 °F 30.5 °F 35.6 °F 87% 29.71 in 6.2 mi SSW 16.1 mph - N/A   Scattered Clouds
9:56 AM 39.2 °F 30.2 °F 35.6 °F 87% 29.71 in 6.2 mi SSW 17.3 mph - N/A   Mostly Cloudy
10:00 AM 40 °F - 36 °F 82% 29.74 in 14 mi SSW 17.9 mph - -   Mostly Cloudy
10:11 AM 41.0 °F 32.8 °F 35.6 °F 81% 29.71 in 6.2 mi SSW 16.1 mph - N/A   Partly Cloudy
10:25 AM 41.0 °F 32.8 °F 35.6 °F 81% 29.71 in 6.2 mi SSW 16.1 mph - N/A   Partly Cloudy
10:29 AM 41.0 °F 32.8 °F 37.4 °F 87% 29.71 in 6.2 mi SSW 16.1 mph - N/A   Scattered Clouds
10:33 AM 41.0 °F 32.5 °F 35.6 °F 81% 29.71 in 6.2 mi SSW 17.3 mph - N/A   Partly Cloudy
10:55 AM 42.8 °F 35.4 °F 37.4 °F 81% 29.71 in 6.2 mi SSW 15.0 mph - N/A   Mostly Cloudy
11:00 AM 42 °F - 37 °F 76% 29.73 in 12 mi SSW 15.7 mph - -   Partly Cloudy
11:00 AM 42.8 °F 35.1 °F 37.4 °F 81% 29.71 in 6.2 mi SSW 16.1 mph - N/A   Mostly Cloudy
11:04 AM 42.8 °F 35.4 °F 37.4 °F 81% 29.71 in 6.2 mi South 15.0 mph - N/A   Mostly Cloudy
11:25 AM 44.6 °F 38.4 °F 37.4 °F 76% 29.71 in 6.2 mi South 12.7 mph - N/A   Partly Cloudy
11:55 AM 44.6 °F 37.4 °F 37.4 °F 76% 29.71 in 6.2 mi SSW 16.1 mph - N/A   Unknown
12:00 PM 45 °F - 36 °F 63% 29.71 in 15 mi SSW 17.9 mph - -   Scattered Clouds
12:25 PM 46.4 °F 39.8 °F 37.4 °F 71% 29.68 in 6.2 mi SSW 16.1 mph - N/A   Partly Cloudy
12:55 PM 48.2 °F - 35.6 °F 62% 29.65 in 6.2 mi SSW 16.1 mph - N/A   Unknown
1:00 PM 48 °F - 37 °F 54% 29.67 in 18 mi SSW 15.7 mph - -   Partly Cloudy
1:25 PM 48.2 °F - 35.6 °F 62% 29.65 in 6.2 mi SSW 18.4 mph - N/A   Scattered Clouds
1:55 PM 48.2 °F - 35.6 °F 62% 29.62 in 6.2 mi SSW 18.4 mph - N/A   Scattered Clouds
2:00 PM 48 °F - 34 °F 47% 29.64 in 19 mi SSW 20.1 mph - -   Mostly Cloudy
2:25 PM 48.2 °F - 33.8 °F 58% 29.62 in 6.2 mi South 20.7 mph - N/A   Unknown
2:55 PM 48.2 °F - 33.8 °F 58% 29.59 in 6.2 mi South 17.3 mph - N/A   Overcast
3:00 PM 48 °F - 34 °F 47% 29.60 in 19 mi South 17.9 mph - -   Overcast
3:16 PM 48.2 °F - 33.8 °F 58% 29.56 in 6.2 mi South 17.3 mph - N/A   Overcast
3:17 PM 48.2 °F - 33.8 °F 58% 29.56 in 6.2 mi South 17.3 mph - N/A   Overcast
3:25 PM 48.2 °F - 33.8 °F 58% 29.56 in 6.2 mi South 16.1 mph - N/A   Overcast
3:55 PM 46.4 °F 39.0 °F 32.0 °F 57% 29.56 in 6.2 mi South 19.6 mph - N/A   Overcast
4:00 PM 47 °F - 32 °F 44% 29.56 in 25 mi South 17.9 mph - -   Mostly Cloudy
4:25 PM 46.4 °F 39.5 °F 32.0 °F 57% 29.53 in 6.2 mi South 17.3 mph - N/A   Mostly Cloudy
4:55 PM 46.4 °F 39.5 °F 32.0 °F 57% 29.53 in 6.2 mi South 17.3 mph - N/A   Mostly Cloudy
5:00 PM 46 °F - 32 °F 45% 29.54 in 28 mi South 17.9 mph - -   Mostly Cloudy
5:25 PM 46.4 °F 40.1 °F 32.0 °F 57% 29.50 in 6.2 mi South 15.0 mph - N/A   Mostly Cloudy
5:55 PM 44.6 °F 37.4 °F 32.0 °F 61% 29.47 in 6.2 mi South 16.1 mph - N/A   Mostly Cloudy
6:00 PM 46 °F - 33 °F 48% 29.49 in 28 mi South 17.9 mph - -   Mostly Cloudy
6:06 PM 44.6 °F 37.2 °F 32.0 °F 61% 29.47 in 6.2 mi South 17.3 mph - N/A   Overcast
6:25 PM 44.6 °F 36.9 °F 32.0 °F 61% 29.44 in 6.2 mi SSE 18.4 mph - N/A   Overcast
6:36 PM 44.6 °F 37.2 °F 32.0 °F 61% 29.44 in 6.2 mi SSE 17.3 mph - N/A   Overcast
6:55 PM 44.6 °F 37.2 °F 32.0 °F 61% 29.44 in 6.2 mi South 17.3 mph 28.8 mph N/A   Mostly Cloudy
7:00 PM 45 °F - 32 °F 49% 29.46 in 28 mi South 15.7 mph - -   Partly Cloudy
7:25 PM 44.6 °F 37.4 °F 32.0 °F 61% 29.44 in 6.2 mi South 16.1 mph - N/A   Mostly Cloudy
7:33 PM 44.6 °F 37.4 °F 33.8 °F 66% 29.44 in 6.2 mi South 16.1 mph - N/A   Drizzle
7:34 PM 44.6 °F 33.8 °F 33.8 °F 66% 29.44 in 6.2 mi South 36.8 mph 59.8 mph N/A   Heavy Drizzle
7:55 PM 42.8 °F 32.1 °F 35.6 °F 76% 29.44 in 6.2 mi South 31.1 mph 46.0 mph N/A Rain Light Rain
7:59 PM 42.8 °F 32.3 °F 35.6 °F 76% 29.44 in 6.2 mi South 29.9 mph 46.0 mph N/A Rain Light Rain
8:00 PM 42 °F - 36 °F 73% 29.45 in 5 mi South 29.1 mph - - Rain Light Rain Showers
8:01 PM 42.8 °F 32.9 °F 37.4 °F 81% 29.44 in 5.0 mi SSW 26.5 mph 38.0 mph N/A Rain Light Rain
8:08 PM 42.8 °F 33.5 °F 37.4 °F 81% 29.44 in 5.0 mi South 23.0 mph 38.0 mph N/A Rain Light Rain
8:14 PM 42.8 °F 34.0 °F 37.4 °F 81% 29.42 in 3.7 mi South 20.7 mph 32.2 mph N/A Rain Light Rain
8:25 PM 41.0 °F 32.2 °F 37.4 °F 87% 29.42 in 6.2 mi South 18.4 mph 29.9 mph N/A Rain Light Rain
8:33 PM 41.0 °F 32.2 °F 37.4 °F 87% 29.42 in 6.2 mi South 18.4 mph - N/A Rain Light Rain
8:37 PM 42.8 °F 34.3 °F 37.4 °F 81% 29.42 in 6.2 mi South 19.6 mph 32.2 mph N/A Rain Light Rain
8:41 PM 42.8 °F 34.3 °F 37.4 °F 81% 29.42 in 6.2 mi South 19.6 mph 32.2 mph N/A   Drizzle
8:55 PM 42.8 °F 34.3 °F 37.4 °F 81% 29.42 in 6.2 mi South 19.6 mph - N/A Rain Light Rain
9:00 PM 42 °F - 37 °F 77% 29.42 in 9 mi South 20.1 mph - - Rain Light Rain
9:25 PM 42.8 °F 34.3 °F 37.4 °F 81% 29.39 in 6.2 mi South 19.6 mph - N/A   Mostly Cloudy
9:55 PM 42.8 °F 34.5 °F 37.4 °F 81% 29.39 in 6.2 mi South 18.4 mph - N/A   Mostly Cloudy
10:00 PM 43 °F - 37 °F 74% 29.39 in 9 mi South 20.1 mph - - Rain Light Drizzle
10:25 PM 42.8 °F 34.0 °F 37.4 °F 81% 29.39 in 5.0 mi South 20.7 mph - N/A   Drizzle
10:55 PM 42.8 °F 33.5 °F 37.4 °F 81% 29.36 in 6.2 mi SSW 23.0 mph - N/A Rain Light Rain
11:00 PM 43 °F - 38 °F 75% 29.39 in 7 mi SSW 24.6 mph - - Rain Heavy Rain
11:25 PM 42.8 °F 34.3 °F 37.4 °F 81% 29.36 in 6.2 mi SSW 19.6 mph - N/A   Mostly Cloudy
11:36 PM 42.8 °F 34.8 °F 37.4 °F 81% 29.36 in 6.2 mi SSW 17.3 mph - N/A   Partly Cloudy
11:41 PM 42.8 °F 34.8 °F 37.4 °F 81% 29.36 in 6.2 mi SSW 17.3 mph - N/A   Scattered Clouds
11:45 PM 42.8 °F 34.5 °F 37.4 °F 81% 29.36 in 6.2 mi SSW 18.4 mph - N/A   Mostly Cloudy
11:55 PM 42.8 °F 34.0 °F 37.4 °F 81% 29.36 in 6.2 mi SSW 20.7 mph 32.2 mph N/A   Mostly Cloudy
11:59 PM 42.8 °F 34.0 °F 37.4 °F 81% 29.36 in 6.2 mi SSW 20.7 mph 32.2 mph N/A   Mostly Cloudy